www.pogodaiklimat.ru

Погода и климат >> Архив погоды >> Мексика >> Ejido Nuevo Leon


ПОГОДА в Ejido Nuevo Leon

  • Прогноз погоды в Ejido Nuevo Leon
  • Монитор погоды в Ejido Nuevo Leon
  • Климат города

АРХИВ ПОГОДЫ в Ejido Nuevo Leon

Время (UTC), дата Ветер
(напр.,м/с)
 
Видим.   Явления Облачность Т
(С)
Тd
(С)
f
(%)
Тe
(С)
Тes
(С)
Комфортность P
(гПа)
Po
(гПа)
Тmin
(С)
Tmax
(С)
R
(мм)
R24
(мм)
S
(см)
00 15.02 Ю 2 10 км 9/0
[Ac lent]
+18.2 +12.9 71 +19 +19 1018.1 1016.7 +9.4 +20.4
03 15.02 Ю 3 2000 м 6/0
[Ac lent]
+15.6 +12.6 82 +15 +15 1019.0 1017.6
06 15.02 ЮВ 2 2000 м 6/0
[Ac lent]
+14.2 +13.2 94 +14 +14 1019.8 1018.4 +9.4 +20.4
09 15.02 ЮВ 2 2000 м 6/0
[Ac lent]
+13.7 +12.2 91 +13 +13 1018.8 1017.4
12 15.02 ЮВ 2 2000 м 5/0
[Ac lent]
+13.5 +11.4 87 +13 +13 1017.8 1016.4 +12.4 +20.4
15 15.02 СВ 1 10 км 8/0
[]
+13.2 +12.5 96 +13 +14 1019.8 1018.4
18 15.02 СЗ 1 10 км 8/0
[As op]
+16.2 +12.5 79 +17 +21 1021.4 1020.0 +12.9 +16.8
21 15.02 С 2 10 км 8/0
[As op]
+21.0 +14.6 67 +25 +28 комфорт 1019.4 1018.0
00 16.02 З 1 10 км 5/0
[Ac trans]
+21.2 +14.9 67 +24 +25 комфорт 1019.0 1017.6 +12.9 +23.4
03 16.02 штиль 0 10 км 5/0
[Ac trans]
+17.0 +14.1 83 +17 +17 1019.9 1018.5
06 16.02 ЮВ 1 2000 м ясно +13.6 +12.2 91 +14 +14 1021.4 1020.0 +12.9 +23.4
09 16.02 С 1 2000 м ясно +12.2 +10.0 86 +12 +12 1021.3 1019.9
12 16.02 СЗ 2 2000 м ясно +11.6 +8.6 82 +10 +10 1021.0 1019.6 +11.3 +23.4
15 16.02 З 2 10 км 8/0
[As op]
+12.2 +7.7 74 +11 +12 1021.1 1019.7
18 16.02 СЗ 3 10 км 4/0
[Ac trans]
+17.8 +5.2 43 +18 +24 1022.0 1020.6 +10.8 +18.3
21 16.02 СЗ 3 10 км 6/0
[Ac trans]
+21.0 +5.3 36 +22 +28 комфорт 1019.6 1018.2
00 17.02 СЗ 2 10 км 4/0
[Ac trans]
+22.6 +6.2 35 +23 +24 комфорт 1018.3 1016.9 +10.8 +23.0
03 17.02 З 1 2000 м ясно +16.3 +10.9 70 +17 +17 1019.6 1018.2
06 17.02 СВ 1 2000 м ясно +11.0 +9.2 89 +11 +11 1020.3 1018.9 +10.8 +23.0
09 17.02 СВ 1 2000 м ясно +7.5 +5.2 85 +7 +7 1020.6 1019.2
12 17.02 З 1 2000 м ясно +5.8 +3.6 86 +5 +5 1020.1 1018.7 +5.4 +23.0
15 17.02 З 1 10 км ясно +11.3 +2.1 53 +11 +11 1021.4 1020.0
18 17.02 СЗ 2 10 км ясно +18.8 +5.1 40 +20 +29 1022.4 1020.1 +4.0 +20.2
21 17.02 СЗ 2 10 км ясно +23.0 +5.3 32 +23 +34 комфорт 1020.3 1018.9
00 18.02 СВ 2 10 км 3/0
[Ac trans]
+23.2 +5.6 32 +24 +25 комфорт 1017.9 1016.5 +4.0 +25.7
03 18.02 Ю 1 2000 м ясно +16.2 +8.6 61 +17 +17 1017.3 1016.0
06 18.02 Ю 2 2000 м ясно +16.2 +6.1 51 +16 +16 1016.2 1015.2 +4.0 +25.7
09 18.02 В 2 2000 м ясно +10.0 +5.2 72 +9 +9 1015.3 1013.9
15 18.02 ЮЗ 1 10 км ясно +7.8 +3.6 75 +7 +8 1014.5 1013.1
18 18.02 ЮВ 3 10 км ясно +18.4 +8.4 52 +19 +27 1014.1 1012.7 +6.4 +19.5
21 18.02 ЮВ 3 10 км ясно +25.8 +13.0 45 +28 +36 жарко 1010.7 1009.3
00 19.02 ЮВ 4 10 км ясно +24.6 +10.2 40 +26 +27 жарко 1009.1 1007.8 +6.4 +26.6
03 19.02 ЮВ 2 200 м ясно +17.3 +12.5 73 +18 +18 1008.3 1007.0
06 19.02 СВ 2 200 м ясно +13.5 +11.2 86 +13 +13 1008.4 1007.1 +6.4 +26.6
09 19.02 В 1 200 м ясно +10.5 +8.8 89 +10 +10 1008.2 1006.9
18 19.02 З 7 10 км ясно +17.0 +4.1 42 +16 +19 1009.8 1008.4 +7.6 +17.6
21 19.02 З 7 10 км ясно +20.0 +2.1 30 +20 +23 1010.5 1009.1
03 20.02 СЗ 3 10 км ясно +12.2 +2.1 50 +11 +11 1013.2 1011.8
06 20.02 З 4 2000 м ясно +11.0 +2.0 54 +9 +9 1015.2 1013.8 +7.6 +19.4
09 20.02 З 2 2000 м ясно +8.0 +3.3 72 +6 +6 1017.0 1015.6
12 20.02 З 1 2000 м ясно +6.8 +0.5 64 +6 +6 1017.5 1016.1 +6.8 +19.4
15 20.02 С 2 10 км ясно +4.8 +1.6 80 +2 +3 1020.0 1018.6
18 20.02 СЗ 3 10 км ясно +12.6 +0.9 45 +12 +20 1022.0 1020.6 +4.6 +13.2
21 20.02 С 2 10 км ясно +15.8 +2.8 42 +16 +27 1020.3 1018.9
00 21.02 З 2 10 км ясно +16.8 +1.5 36 +17 +19 1019.9 1018.5 +19.9 +17.5
03 21.02 З 8 10 км ясно +10.8 +4.0 63 +7 +7 1020.1 1018.7
06 21.02 В 1 2000 м ясно +5.5 +2.6 82 +4 +4 1020.9 1019.5 +4.6 +17.5
09 21.02 СЗ 2 2000 м ясно +2.6 +2.1 97 -1 -1 1020.7 1019.3
12 21.02 Ю 1 2000 м ясно +1.3 +0.6 95 -1 -1 1019.3 1017.9 +1.0 +17.5
15 21.02 СВ 1 10 км ясно +1.4 -1.7 80 -0 +1 1020.3 1018.9
18 21.02 С 2 10 км ясно +13.6 -0.6 38 +13 +23 1021.4 1020.0 +0.1 +14.2
21 21.02 ЮВ 2 10 км ясно +17.8 +4.2 40 +18 +29 1019.7 1018.3

 

Местоположение метеостанции Ejido Nuevo Leon (Мексика): широта 32.40 долгота -115.10 высота над уровнем моря 11 м.

В архиве по умолчанию представлена погода в Ejido Nuevo Leon за последнюю неделю. Архивные данные за месяц целиком и за предыдущие месяцы, начиная с января 2011 года, Вы можете получить, выбрав интересующий диапазон дат из раскрывающегося списка и нажав кнопку "Ввод!".

Внимание! Время в таблицах - всемирное. Для получения местного времени необходимо прибавить поправку, которая в Ejido Nuevo Leon равна -8 ч.

Смотрите также архив погоды в соседних городах и на ближайших метеорологических станциях:

Погода в San Felipe (Мексика) (155 км)
Погода в Puerto Penasco (Мексика) (191 км)
Погода в Altar Son (Мексика) (362 км)
Погода в Hermosillo (Мексика) (534 км)
Погода в Hermosillo la Magna (Мексика) (542 км)
Погода в Pilares de Nacoz (Мексика) (562 км)
Погода в Santa Rosalia (Мексика) (632 км)
Погода в Guaymas (Мексика) (643 км)
Погода в Empalme (Мексика) (651 км)
Погода в Nueva Casas Grandes (Мексика) (720 км)

Пояснения к столбцам:

Ветер - указаны скорость ветра в м/с - средняя за 10 мин, порывы в срок и между сроками (в фигурных скобках) и направление, откуда дует ветер: С - северный, СВ - северо-восточный, В - восточный, ЮВ - юго-восточный, Ю - южный, ЮЗ - юго-западный, З - западный, СЗ - северо-западный.
Видимость - горизонтальная дальность видимости в метрах или километрах. При видимости от 1 до 10 км при отсутствии осадков обычно наблюдается дымка, при ухудшении видимости до 1 км и менее - туман. В сухую погоду видимость может ухудшаться дымом, пылью или мглою.
Явления - указаны атмосферные явления, наблюдавшиеся в срок или в последний час перед сроком; фигурными скобками обозначены явления, наблюдавшиеся между сроками (за 1-3 часа до срока); квадратными скобками обозначены град или гололедные отложения с указанием их диаметра в мм.
Облачность - указаны через наклонную черту общая и нижняя облачность в баллах и высота нижней границы облаков в метрах; квадратными скобками обозначены формы облаков: Ci - перистые, Cs - перисто-слоистые, Cc - перисто-кучевые, Ac - высококучевые, As - высокослоистые, Sc - слоисто-кучевые, Ns - слоисто-дождевые, Cu - кучевые, Cb - кучево-дождевые. Подробнее классификацию облаков см. в Атласе облаков (PDF).
T - Температура воздуха - температура, измеренная на высоте 2 м над землей.
Td - Температура точки росы - температура, при понижении до которой содержащийся в воздухе водяной пар достигнет насыщения.
f - Относительная влажность воздуха - влажноcть воздуха, измеренная на высоте 2 м над землей.
Te - Эффективная температура - температура, которую ощущает одетый по сезону человек в тени. Характеристика душности погоды. При расчете учитывается влияние влажности воздуха и скорости ветра на теплоощущения человека.
Tes - Эффективная температура на солнце - температура, которую ощущает человек, с поправкой на солнечный нагрев. Характеристика знойности погоды. Зависит от высоты солнца над горизонтом, облачности и скорости ветра. Ночью, в пасмурную погоду, а также при ветре 12 м/с и более поправка равна нулю.
P - Атмосферное давление - приведенное к уровню моря атмосферное давление.
Po - Атмосферное давление - измеренное на уровне метеостанции атмосферное давление.
Tmin - Минимальная температура - минимум температуры воздуха на высоте 2 м над землей.
Tmax - Максимальная температура - максимум температуры воздуха на высоте 2 м над землей.
R - Количество осадков - Количество выпавших осадков за период времени, мм. При наведении курсора мыши на число - период времени, за который выпало указанное количество осадков.
R24 - Количество осадков - Количество выпавших осадков за 24 часа, мм.
S - Снежный покров - Высота снежного покрова, см. При наведении курсора мыши на число - состояние снежного покрова и степень покрытия местности в баллах.